Regional Weather Roundup
Issued by NWS Northern Indiana

Home | Current Version | Previous Version | Text Only | Print | Product List | Glossary Off
Versions: 1 2 3 4 5 6 7 8 9 10 11 12 13 14 15 16 17 18 19 20 21 22 23 24 25 26 27 28 29 30 31 32 33 34 35 36 37 38 39 40 41 42 43 44 45 46 47 48 49 50

000
ASUS43 KIWX 242010
RWRIWX

KIWX WEATHER ROUNDUP
NATIONAL WEATHER SERVICE NORTHERN INDIANA
400 PM EDT SUN SEP 24 2017

NOTE: "FAIR" INDICATES FEW OR NO CLOUDS BELOW 12,000 FEET WITH NO
SIGNIFICANT WEATHER AND/OR OBSTRUCTIONS TO VISIBILITY.

* THESE STATIONS ARE NOT UNDER NWS QUALITY CONTROL. THEY ALSO MAY NOT
  REPORT WEATHER SUCH AS PRECIPITATION OR FOG.

INZ001>027-242100-
NORTHERN INDIANA

CITY           SKY/WX    TMP DP  RH WIND       PRES   REMARKS
GARY*          MOSUNNY   91  52  25 SE7       30.04F
VALPARAISO     SUNNY     93  57  29 VRB7      30.05F
MICHIGAN CITY* SUNNY     90  57  33 S6        30.05F
LAPORTE*       SUNNY     90  58  34 SE8       30.06F
KNOX*          SUNNY     90  55  31 SE9       30.05F
SOUTH BEND     SUNNY     90  55  30 SE10      30.07F
GOSHEN         SUNNY     89  55  31 S9        30.07F
MONTICELLO*    SUNNY     90  55  30 S7        30.03F
LOGANSPORT*    SUNNY     90  54  29 S6G17     30.06F
WARSAW*        SUNNY     88  59  37 SE7       30.07F
AUBURN*        SUNNY     90  52  27 E7        30.08F HAZE
FORT WAYNE     MOSUNNY   89  56  32 SE10      30.08F
HUNTINGTON*    SUNNY     91  50  24 E10       30.06F
PERU/GRISSOM   SUNNY     91  55  30 S3        30.04F
MARION*        SUNNY     90  54  29 S5        30.06F HAZE

$$
INZ028>050-242100-
CENTRAL INDIANA

CITY           SKY/WX    TMP DP  RH WIND       PRES   REMARKS
LAFAYETTE      MOSUNNY   88  60  38 CALM      30.02F
KOKOMO*        SUNNY     88  58  36 SE8       30.06F
MUNCIE*        SUNNY     92  48  22 SE8G16    30.06F
INDIANAPOLIS   MOSUNNY   90  55  30 SE9       30.04F

$$
MIZ043>046-050>051-056>058-064>065-071>073-077>080-242100-
SOUTHWEST LOWER MICHIGAN

CITY           SKY/WX    TMP DP  RH WIND       PRES   REMARKS
BATTLE CREEK   SUNNY     91  56  30 S12       30.09F
BENTON HARBOR  SUNNY     91  55  29 S8G18     30.05F
COLDWATER*     SUNNY     89  51  27 S7        30.10F
HILLSDALE*     PTSUNNY   90  54  29 SE7G45    30.11F
HOLLAND        SUNNY     91  60  35 W13       30.06F
GRAND RAPIDS   MOSUNNY   92  56  29 S9        30.07F
KALAMAZOO      SUNNY     91  52  26 SE10      30.08F
STURGIS*       SUNNY     89  57  33 SE9       30.08F
THREE RIVERS*  FAIR      91  53  27 S8        30.08F

$$
OHZ001>008-015>018-024>025-242100-
NORTHWEST OHIO

CITY           SKY/WX    TMP DP  RH WIND       PRES   REMARKS
WAUSEON*       FAIR      91  57  31 VRB6G15   30.09S
DEFIANCE       SUNNY     90  55  30 SE9       30.07F
FINDLAY        SUNNY     91  56  30 E9        30.07F
TOLEDO EXPRESS SUNNY     92  60  34 VRB5      30.08F
TOLEDO METCALF SUNNY     89  63  41 NE9       30.09F
LIMA           SUNNY     90  56  31 E8        30.08F

$$
AND FOR LAKE MICHIGAN COASTAL AND OPEN LAKE BUOY OBSERVATIONS

STATION/POSITION TEMP    WIND        PRES    VSBY  WAVE
                 AIR SEA DIR/SP/G                  HT/PER
                 (F)     (DEG/KT/KT) (MB)    (MI)  (FT/S)
CALUMET HARBOR    81      40/  6/ 10 1016.6F
MICHIGAN CITY     80      20/  7/  8   N/A
BURNS HARBOR      77      10/ 12/ 14 1017.3F
SAINT JOSEPH      80      30/  5/  6 1018.6
SOUTH LAKE BUOY   73 72  140/  6/  6 1017.8F         1
4 MI NW BRIDGMAN  76 74   20/  6/  6 1017.2          0
MICHIGAN CITY     77 74   30/  6/ 10   N/A           1

$$
&&



USA.gov is the U.S. government's official web portal to all federal, state and local government web resources and services.